| time (UTC) | temp F | wind direction | speed MPH | gust MPH | rain 1hr in | rain 24hr in | rain mn in | humidity % | barometer mb |
| 20260507151538 | 47 | 310 | 0.0 | 0.0 | 0.00 | 0.00 | 0.00 | 88 | 1014.6 |
| 20260507150026 | 45 | 310 | 0.0 | 0.0 | 0.00 | 0.00 | 0.00 | 92 | 1014.8 |
| 20260507144525 | 42 | 310 | 0.0 | 0.0 | 0.00 | 0.00 | 0.00 | 95 | 1014.9 |
| 20260507143025 | 39 | 310 | 0.0 | 0.0 | 0.00 | 0.00 | 0.00 | 95 | 1014.9 |
| 20260507141523 | 36 | 310 | 0.0 | 0.0 | 0.00 | 0.00 | 0.00 | 94 | 1015.0 |
| 20260507140022 | 34 | 310 | 0.0 | 0.0 | 0.00 | 0.00 | 0.00 | 93 | 1014.9 |
| 20260507134530 | 33 | 310 | 0.0 | 0.0 | 0.00 | 0.00 | 0.00 | 92 | 1014.6 |
| 20260507133021 | 33 | 310 | 0.0 | 0.0 | 0.00 | 0.00 | 0.00 | 91 | 1014.6 |
| 20260507131525 | 33 | 310 | 0.0 | 0.0 | 0.00 | 0.00 | 0.00 | 91 | 1014.7 |
| 20260507130017 | 33 | 310 | 0.0 | 0.0 | 0.00 | 0.00 | 0.00 | 91 | 1014.5 |
| 20260507124516 | 33 | 310 | 0.0 | 0.0 | 0.00 | 0.00 | 0.00 | 90 | 1014.5 |
| 20260507123020 | 33 | 310 | 0.0 | 0.0 | 0.00 | 0.00 | 0.00 | 90 | 1014.5 |
| 20260507121512 | 34 | 310 | 0.0 | 0.0 | 0.00 | 0.00 | 0.00 | 90 | 1014.6 |
| 20260507120008 | 34 | 310 | 0.0 | 0.0 | 0.00 | 0.00 | 0.00 | 89 | 1014.6 |
| 20260507114511 | 35 | 310 | 0.0 | 0.0 | 0.00 | 0.00 | 0.00 | 90 | 1014.7 |
| 20260507113006 | 35 | 310 | 0.0 | 0.0 | 0.00 | 0.00 | 0.00 | 90 | 1014.7 |
| 20260507111510 | 36 | 310 | 0.0 | 0.0 | 0.00 | 0.00 | 0.00 | 89 | 1014.6 |
| 20260507110122 | 36 | 310 | 0.0 | 0.0 | 0.00 | 0.00 | 0.00 | 89 | 1014.7 |
| 20260507104559 | 37 | 310 | 0.0 | 0.0 | 0.00 | 0.00 | 0.00 | 89 | 1014.7 |
| 20260507103058 | 37 | 310 | 0.0 | 0.0 | 0.00 | 0.00 | 0.00 | 88 | 1014.7 |
| 20260507101558 | 38 | 310 | 0.0 | 0.0 | 0.00 | 0.00 | 0.00 | 88 | 1014.7 |
| 20260507100052 | 38 | 310 | 0.0 | 0.0 | 0.00 | 0.00 | 0.00 | 88 | 1014.8 |
| 20260507094602 | 39 | 310 | 0.0 | 0.0 | 0.00 | 0.00 | 0.00 | 88 | 1014.8 |
| 20260507093056 | 39 | 310 | 0.0 | 0.0 | 0.00 | 0.00 | 0.00 | 87 | 1014.8 |
| 20260507091607 | 40 | 310 | 0.0 | 0.0 | 0.00 | 0.00 | 0.00 | 86 | 1014.9 |
| 20260507090046 | 40 | 310 | 0.0 | 0.0 | 0.00 | 0.00 | 0.00 | 86 | 1014.9 |
| 20260507084542 | 41 | 310 | 0.0 | 0.0 | 0.00 | 0.00 | 0.00 | 84 | 1015.0 |
| 20260507083039 | 42 | 310 | 0.0 | 0.0 | 0.00 | 0.00 | 0.00 | 83 | 1015.0 |
| 20260507081535 | 43 | 310 | 0.0 | 0.0 | 0.00 | 0.00 | 0.00 | 82 | 1014.9 |
| 20260507080032 | 44 | 310 | 0.0 | 0.0 | 0.00 | 0.00 | 0.00 | 81 | 1015.0 |
| 20260507074540 | 45 | 310 | 0.0 | 0.0 | 0.00 | 0.00 | 0.00 | 80 | 1015.0 |
| 20260507073025 | 46 | 310 | 0.0 | 0.0 | 0.00 | 0.00 | 0.00 | 78 | 1015.1 |
| 20260507071522 | 47 | 310 | 0.0 | 0.0 | 0.00 | 0.00 | 0.00 | 76 | 1015.2 |
| 20260507070018 | 48 | 310 | 0.0 | 0.0 | 0.00 | 0.00 | 0.00 | 75 | 1015.2 |
| 20260507064518 | 50 | 310 | 0.0 | 0.0 | 0.00 | 0.00 | 0.00 | 72 | 1015.1 |
| 20260507063017 | 51 | 310 | 0.0 | 0.0 | 0.00 | 0.00 | 0.00 | 71 | 1015.2 |
| 20260507061517 | 52 | 310 | 0.0 | 0.0 | 0.00 | 0.00 | 0.00 | 70 | 1015.2 |
| 20260507060020 | 52 | 310 | 0.0 | 0.0 | 0.00 | 0.00 | 0.00 | 68 | 1015.2 |
| 20260507054516 | 52 | 310 | 0.0 | 0.0 | 0.00 | 0.00 | 0.00 | 68 | 1015.3 |
| 20260507053016 | 53 | 310 | 0.0 | 0.0 | 0.00 | 0.00 | 0.00 | 65 | 1015.4 |
| 20260507051519 | 54 | 310 | 0.0 | 0.0 | 0.00 | 0.00 | 0.00 | 63 | 1015.3 |
| 20260507050014 | 56 | 310 | 0.0 | 0.0 | 0.00 | 0.00 | 0.00 | 60 | 1015.4 |
| 20260507044515 | 57 | 310 | 0.0 | 0.0 | 0.00 | 0.00 | 0.00 | 59 | 1015.3 |
| 20260507043014 | 57 | 310 | 0.0 | 0.0 | 0.00 | 0.00 | 0.00 | 58 | 1015.2 |
| 20260507041513 | 58 | 310 | 0.0 | 0.0 | 0.00 | 0.00 | 0.00 | 58 | 1015.0 |
| 20260507040013 | 59 | 310 | 0.0 | 0.0 | 0.00 | 0.00 | 0.00 | 58 | 1014.7 |
| 20260507034516 | 60 | 310 | 0.0 | 0.0 | 0.00 | 0.00 | 0.00 | 54 | 1014.6 |
| 20260507033011 | 61 | 310 | 0.0 | 0.0 | 0.00 | 0.00 | 0.00 | 52 | 1014.5 |
| 20260507031512 | 62 | 310 | 0.0 | 0.0 | 0.00 | 0.00 | 0.00 | 50 | 1014.3 |
| 20260507030013 | 63 | 316 | 0.0 | 0.0 | 0.00 | 0.00 | 0.00 | 48 | 1014.2 |
| 20260507024514 | 63 | 316 | 0.0 | 0.0 | 0.00 | 0.00 | 0.00 | 47 | 1014.0 |
| 20260507023009 | 64 | 316 | 0.0 | 0.0 | 0.00 | 0.00 | 0.00 | 45 | 1013.9 |
| 20260507021509 | 65 | 316 | 0.0 | 0.0 | 0.00 | 0.00 | 0.00 | 40 | 1013.7 |
| 20260507020008 | 66 | 316 | 0.0 | 0.0 | 0.00 | 0.00 | 0.00 | 40 | 1013.6 |
| 20260507014512 | 66 | 316 | 0.0 | 0.0 | 0.00 | 0.00 | 0.00 | 44 | 1013.5 |
| 20260507013008 | 67 | 283 | 0.0 | 0.0 | 0.00 | 0.00 | 0.00 | 44 | 1013.5 |
| 20260507011512 | 68 | 273 | 0.0 | 0.0 | 0.00 | 0.00 | 0.00 | 43 | 1013.6 |
| 20260507010012 | 69 | 322 | 1.0 | 0.0 | 0.00 | 0.00 | 0.00 | 42 | 1013.5 |
| 20260507004506 | 70 | 330 | 1.0 | 0.0 | 0.00 | 0.00 | 0.00 | 40 | 1013.3 |
| 20260507003011 | 71 | 289 | 1.0 | 0.0 | 0.00 | 0.00 | 0.00 | 40 | 1013.2 |
| 20260507001504 | 72 | 316 | 1.0 | 0.0 | 0.00 | 0.00 | 0.00 | 38 | 1012.9 |
| 20260507000003 | 73 | 314 | 1.0 | 0.0 | 0.00 | 0.00 | 0.00 | 38 | 1012.9 |
| 20260506234502 | 74 | 313 | 1.0 | 0.0 | 0.00 | 0.00 | 0.00 | 36 | 1012.6 |
| 20260506233002 | 75 | 343 | 1.0 | 0.0 | 0.00 | 0.00 | 0.00 | 35 | 1012.6 |
| 20260506231503 | 75 | 321 | 1.0 | 0.0 | 0.00 | 0.00 | 0.00 | 32 | 1012.7 |
| 20260506230100 | 76 | 335 | 1.0 | 0.0 | 0.00 | 0.00 | 0.00 | 30 | 1012.6 |
| 20260506224559 | 77 | 296 | 1.0 | 0.0 | 0.00 | 0.00 | 0.00 | 29 | 1012.6 |
| 20260506223101 | 78 | 294 | 1.0 | 0.0 | 0.00 | 0.00 | 0.00 | 28 | 1012.7 |
| 20260506221603 | 79 | 264 | 0.0 | 0.0 | 0.00 | 0.00 | 0.00 | 26 | 1012.9 |
| 20260506220055 | 78 | 264 | 1.0 | 0.0 | 0.00 | 0.00 | 0.00 | 24 | 1013.1 |
| 20260506214601 | 78 | 334 | 1.0 | 0.0 | 0.00 | 0.00 | 0.00 | 25 | 1013.2 |
| 20260506213055 | 78 | 292 | 1.0 | 0.0 | 0.00 | 0.00 | 0.00 | 24 | 1013.2 |
| 20260506211553 | 77 | 171 | 1.0 | 0.0 | 0.00 | 0.00 | 0.00 | 27 | 1013.3 |
| 20260506210049 | 77 | 201 | 1.0 | 0.0 | 0.00 | 0.00 | 0.00 | 26 | 1013.4 |
| 20260506204548 | 77 | 253 | 1.0 | 0.0 | 0.00 | 0.00 | 0.00 | 27 | 1013.5 |
| 20260506203046 | 77 | 279 | 1.0 | 0.0 | 0.00 | 0.00 | 0.00 | 27 | 1013.7 |
| 20260506201544 | 76 | 291 | 1.0 | 0.0 | 0.00 | 0.00 | 0.00 | 28 | 1013.7 |
| 20260506200042 | 76 | 216 | 1.0 | 0.0 | 0.00 | 0.00 | 0.00 | 30 | 1013.8 |
| 20260506194540 | 75 | 306 | 1.0 | 0.0 | 0.00 | 0.00 | 0.00 | 31 | 1014.0 |
| 20260506193039 | 74 | 335 | 1.0 | 0.0 | 0.00 | 0.00 | 0.00 | 30 | 1014.1 |
| 20260506191537 | 74 | 271 | 1.0 | 0.0 | 0.00 | 0.00 | 0.00 | 31 | 1014.3 |
| 20260506190036 | 73 | 355 | 0.0 | 0.0 | 0.00 | 0.00 | 0.00 | 31 | 1014.2 |
| 20260506184531 | 72 | 254 | 0.0 | 0.0 | 0.00 | 0.00 | 0.00 | 33 | 1014.5 |
| 20260506183029 | 71 | 181 | 0.0 | 0.0 | 0.00 | 0.00 | 0.00 | 36 | 1014.4 |
| 20260506181527 | 69 | 197 | 1.0 | 0.0 | 0.00 | 0.00 | 0.00 | 36 | 1014.4 |
| 20260506180022 | 69 | 240 | 0.0 | 0.0 | 0.00 | 0.00 | 0.00 | 39 | 1014.5 |
| 20260506174519 | 67 | 264 | 0.0 | 0.0 | 0.00 | 0.00 | 0.00 | 43 | 1014.6 |
| 20260506173019 | 67 | 180 | 0.0 | 0.0 | 0.00 | 0.00 | 0.00 | 44 | 1014.7 |
| 20260506171520 | 66 | 5 | 0.0 | 0.0 | 0.00 | 0.00 | 0.00 | 43 | 1014.7 |
| 20260506170011 | 65 | 272 | 0.0 | 0.0 | 0.00 | 0.00 | 0.00 | 49 | 1015.0 |
| 20260506164506 | 62 | 344 | 0.0 | 0.0 | 0.00 | 0.00 | 0.00 | 54 | 1015.2 |
| 20260506163005 | 60 | 330 | 0.0 | 0.0 | 0.00 | 0.00 | 0.00 | 60 | 1015.2 |
| 20260506161611 | 57 | 282 | 0.0 | 0.0 | 0.00 | 0.00 | 0.00 | 67 | 1015.4 |
| 20260506160058 | 55 | 282 | 0.0 | 0.0 | 0.00 | 0.00 | 0.00 | 73 | 1015.5 |
| 20260506154550 | 51 | 317 | 0.0 | 0.0 | 0.00 | 0.00 | 0.00 | 80 | 1015.6 |
| 20260506153046 | 48 | 326 | 0.0 | 0.0 | 0.00 | 0.00 | 0.00 | 86 | 1015.6 |